Showing default

SJ-11-08, 40286

Orbit data source: Space-Track

SJ-11-08, 40286 is a payload satellite owned by CNSA (CN) in SSO that was launched on Mon, 27 Oct 2014 UTC via a CHANG ZHENG 2C launch vehicle from the Jiuquan Satellite Launch Center, China (JSC). Payload-class satellites include a variety of spacecraft equipped with specific instruments for various scientific and technological missions. These include communications satellites like Starlink; space stations such as the ISS; scientific satellites like the Hubble; Earth observation satellites from companies like Planet Labs, Umbra, and HawkEye 360; GPS; miniature CubeSats for education and research; and military/defense satellites.

Loading next visibility...
Identifier
40286, 2014-066A
Orbit
SSO
Last TLE update
6 hours ago
Origin
Manufacturer
DFH
Mission
Operational Defense Early Warn
Bus & Motor
CAST-2000?, Unknown motor
Mass
~300 kg wet, ~300 kg dry
Launch date (UTC)
2014-10-27 (11 years ago)
Launch vehicle
CHANG ZHENG 2C
Launch site
Jiuquan Satellite Launch Center, China (JSC)
Object type
Payload
Rocket body
Debris
Shape & HBR
Box + 2 Pan, 3 m
Radar Cross Section
2.045 m², Large (>1 m²)

Expand to show TLE details & history

TLE from 6 hours ago
0 SJ-11-08
1 40286U 14066A   25181.84731774  .00000469  00000-0  95921-4 0  9994
2 40286  98.3032 316.9274 0010983 251.7402 108.2606 14.65456810569756
Epoch: 2025-06-30T20:20Z
TLE epoch observation values (Epoch: 2025-06-30T20:20:08.252Z)
Latitude
-0.00002°
Longitude
92.74177°
Altitude
681.034 km
Speed
7.515 km/s
True Right ascension
21h 07m 42s
True Declination
0° 00' 00"
Sunlit
Object was in full shadow at epoch
Visualization orbit readout
Latitude
38.18349°
Longitude
-80.46918°
Altitude
683.532 km
Speed
7.517 km/s
Apparent Right ascension
05h 58m 14s
Apparent Declination
3° 01' 09"
Sunlit
Object is in daylight
Visualization observer readout
Local Sidereal Time
13:30:48
Azimuth
287.651° WNW
Elevation
-15.497°
Doppler factor
1
Orbital elements
Apogee altitude
680.432 km
Perigee altitude
664.944 km
Semi-major axis
7,050.825 km
Eccentricity
0.0011
Inclination
98.3032°
RAAN
316.9274°
Arg. of periapsis
251.7402°
True anomaly
Unknown
Mean anomaly
108.2606°
Eccentric anomaly
Unknown
Mean motion
3.66592 °/min
Orbital period
98.2 mins
BSTAR
0.000095921
Loading maneuver chart data...
Loading SW <> Apogee altitude chart data...
Loading historical data...
Loading historical data...
Loading historical data...
Loading historical data...
Loading historical data...
Loading historical data...
Loading historical data...
Other satellites on launch #66 in the year 2014 (2014-10-27 UTC)

SJ-11-08 Visibility forecast

Observer location: undefined°, undefined°

Span
Click to sort rows by Start time (UTC) header in descending order
Start Az.
Max El. time (UTC)
Max El. Az.
Max El.
End time (UTC)
End Az.
6 mins2025-07-01 07:57:45.464Z107.05° ESE2025-07-01 08:00:45.464Z60.865° ENE19.385°2025-07-01 08:03:45.464Z19.441° NNE
6 mins2025-07-01 09:34:45.464Z204.342° SW2025-07-01 09:37:45.464Z273.573° WNW31.807°2025-07-01 09:40:45.464Z325.149° NNW
7 mins2025-07-01 21:30:45.464Z36.148° NE2025-07-01 21:33:45.464Z114.951° SE35.565°2025-07-01 21:37:45.464Z173.511° S
4 mins2025-07-01 23:08:45.464Z317.914° NNW2025-07-01 23:09:45.464Z302.576° NW16.601°2025-07-01 23:12:45.464Z258.85° W
|